Tracking 18673 objects as of 27-June-2017
HD Live streaming from Space Station
objects crossing your sky now

AENEAS

Track AENEAS now!
10-day predictions
AENEAS is classified as:


NORAD ID: 38760
Int'l Code: 2012-048C
Perigee: 488.8 km
Apogee: 639.6 km
Inclination: 64.7 °
Period: 95.8 minutes
Semi major axis: 6935 km
RCS: Unknown
Launch date: September 13, 2012
Source: United States (US)
Launch site: AIR FORCE WESTERN TEST RANGE (AFWTR)
Uplink (MHz):
Downlink (MHz): 437.600
Beacon (MHz): 437.600
Mode: 1200bps AFSK
Call sign: KE6YFA-1
Status: Active

Your satellite tracking list
Your tracking list is empty





NASA's NSSDC Master Catalog

Two Line Element Set (TLE):
1 38760U 12048C   17178.15813988 +.00001821 +00000-0 +13096-3 0 00092
2 38760 064.6624 336.4447 0108723 109.8709 251.4165 15.03184046001276
Source of the keplerian elements: Caltech